Погода в Елани

Россия / Свердловская область     57°37′57″N   63°41′57″E
темп.,
°C
ветер,
м/с
пор.,
м/с
влажн.,
%
обл.,
%
осадки,
мм/ч
давл.,
гПа
погр.,
м
18 января, пн
пн1823:00−16зсз41094100 0.5 1004453
02:00−19зсз379796 0.1 1007225
05:00−21з379884 0.1 1010177
08:00−22з399510 0.0 1011212
11:00−20з49925 0.0 1014272
14:00−17з38910 0.0 1015267
17:00−18з411920 0.0 1016301
20:00−19з411900 0.0 1016332
19 января, вт
вт1923:00−21з37930 0.0 1019162
02:00−24з23950 0.0 102053
05:00−25зсз22950 0.0 102120
08:00−25зюз129417 0.0 102220
11:00−23юз129352 0.0 102454
14:00−19ю128995 0.0 1024147
17:00−21юв229294 0.0 102422
20:00−21юв2395100 0.0 102457
20 января, ср
ср2023:00−20вюв2595100 0.0 1023135
02:00−19вюв3792100 0.0 1022232
05:00−19вюв3792100 0.0 1021246
08:00−19вюв4990100 0.0 1019284
11:00−18вюв4987100 0.0 1017336
14:00−16вюв4895100 0.3 1015415
17:00−16вюв4995100 1.5 1012627
20:00−16вюв3796100 1.0 1011419
21 января, чт
чт2123:00−17вюв2597100 1.3 1009183
02:00−18ююз1298100 0.2 100824
05:00−18зюз2498100 0.4 1006138
08:00−18з3697100 0.4 1006314
11:00−17зсз379499 0.4 1007402
14:00−16зсз4890100 0.1 1008624
17:00−18зсз3696100 0.1 1010116
20:00−20з249968 0.0 1011107
22 января, пт
пт2223:00−22з379868 0.0 1012126
02:00−23з249877 0.0 101293
05:00−22зюз259885 0.1 1011140
08:00−22з1299100 0.1 101125
11:00−20сз1197100 0.1 1011147
14:00−19ссв2296100 0.2 1011255
17:00−22ссв3598100 0.5 1012258
20:00−25с3697100 0.2 1014298